Regional Weather Roundup
Issued by NWS

Home | Current Version | Previous Version | Graphics & Text | Print | Product List | Glossary On
Versions: 1 2 3 4 5 6 7 8 9 10 11 12 13 14 15 16 17 18 19 20 21 22 23 24 25 26 27 28 29 30 31 32 33 34 35 36 37 38 39 40 41 42 43 44 45 46 47 48 49 50
000
ASUS43 KFSD 210002
RWRSD

WEATHER ROUNDUP FOR SOUTH DAKOTA
NATIONAL WEATHER SERVICE SIOUX FALLS SD
700 PM CDT SUN AUG 20 2017

NOTE: "FAIR" INDICATES FEW OR NO CLOUDS BELOW 12,000 FEET WITH NO
SIGNIFICANT WEATHER AND/OR OBSTRUCTIONS TO VISIBILITY.


SDZ001>005-009-010-012>017-210100-
NORTHWEST AND NORTH CENTRAL SOUTH DAKOTA

CITY           SKY/WX    TMP DP  RH WIND       PRES   REMARKS
BUFFALO          N/A     79  41  25 E21G31    29.91F
FAITH            N/A     75  45  34 SE17      30.02R
MOBRIDGE       CLOUDY    69  51  52 E10       30.01F
$$

SDZ012>016-024>037-041>051-057-063-072>074-210100-
SOUTHWEST AND SOUTH CENTRAL SOUTH DAKOTA

CITY           SKY/WX    TMP DP  RH WIND       PRES   REMARKS
RAPID CTY ARPT SUNNY     81  52  36 SE10      29.99F
PIERRE         SUNNY     75  44  33 E17       29.99S
CUSTER         SUNNY     71  50  47 E10G23    30.11F
ELLSWORTH AFB  SUNNY     81  52  36 SE16G22   29.98F
PHILIP         SUNNY     82  54  37 E18       29.97S
PINE RIDGE     SUNNY     83  52  34 SE10      29.99F
SPEARFISH      FAIR      81  52  36 SE21G29   29.97F
WINNER         FAIR      80  57  45 NE16      29.98S
$$

SDZ004>011-016>023-039-040-210100-
NORTHEAST SOUTH DAKOTA

CITY           SKY/WX    TMP DP  RH WIND       PRES   REMARKS
ABERDEEN       PTSUNNY   70  56  61 N5        30.04R
WATERTOWN      SUNNY     70  55  59 NE8       30.01F
BROOKINGS      SUNNY     70  56  61 NE7       30.03S
SISSETON         N/A     67  63  87 SE7       29.99F
$$

SDZ017-020-022-023-036>040-048>070-210100-
SOUTHEAST SOUTH DAKOTA

CITY           SKY/WX    TMP DP  RH WIND       PRES   REMARKS
SIOUX FALLS    PTSUNNY   76  64  66 NE14      29.98S
HURON          SUNNY     73  56  54 E9        29.99F
CHAMBERLAIN    SUNNY     78  60  52 NE13      29.98S
MITCHELL       SUNNY     79  66  64 NE12      29.97S
YANKTON        SUNNY     82  71  69 E7        29.94F
$$

ABBREVIATIONS USED IN REMARKS
   TC - TEMPERATURE IN CELSIUS
  WCI - WIND CHILL INDEX
   HX - HEAT INDEX
  VSB - VISIBILITY





USA.gov is the U.S. government's official web portal to all federal, state and local government web resources and services.